| time (UTC) | temp F | wind direction | speed MPH | gust MPH | rain 1hr in | rain 24hr in | rain mn in | humidity % | barometer mb |
| 20260903075546 | 77 | 26 | 1.0 | 4.0 | 0.00 | 0.00 | 0.00 | 40 | 1024.4 |
| 20260903075043 | 77 | 0 | 0.0 | 3.0 | 0.00 | 0.00 | 0.00 | 40 | 1024.3 |
| 20260903074602 | 76 | 0 | 1.0 | 6.0 | 0.00 | 0.00 | 0.00 | 40 | 1024.2 |
| 20260903074046 | 76 | 0 | 1.0 | 6.0 | 0.00 | 0.00 | 0.00 | 40 | 1024.2 |
| 20260903073543 | 76 | 0 | 0.0 | 3.0 | 0.00 | 0.00 | 0.00 | 40 | 1024.3 |
| 20260903073111 | 76 | 0 | 0.0 | 4.0 | 0.00 | 0.00 | 0.00 | 41 | 1024.3 |
| 20260903072547 | 75 | 156 | 0.0 | 4.0 | 0.00 | 0.00 | 0.00 | 41 | 1024.4 |
| 20260903072043 | 75 | 65 | 0.0 | 4.0 | 0.00 | 0.00 | 0.00 | 41 | 1024.4 |
| 20260903071605 | 74 | 0 | 1.0 | 4.0 | 0.00 | 0.00 | 0.00 | 41 | 1024.3 |
| 20260903071043 | 75 | 0 | 1.0 | 5.0 | 0.00 | 0.00 | 0.00 | 42 | 1024.2 |
| 20260903070548 | 75 | 73 | 2.0 | 5.0 | 0.00 | 0.00 | 0.00 | 41 | 1024.1 |
| 20260903070100 | 75 | 122 | 0.0 | 2.0 | 0.00 | 0.00 | 0.00 | 40 | 1024.0 |
| 20260903065545 | 75 | 0 | 0.0 | 5.0 | 0.00 | 0.00 | 0.00 | 41 | 1024.0 |
| 20260903065044 | 74 | 0 | 0.0 | 5.0 | 0.00 | 0.00 | 0.00 | 42 | 1024.0 |
| 20260903064556 | 74 | 31 | 0.0 | 4.0 | 0.00 | 0.00 | 0.00 | 42 | 1023.9 |
| 20260903064044 | 73 | 0 | 0.0 | 4.0 | 0.00 | 0.00 | 0.00 | 42 | 1023.8 |
| 20260903063544 | 74 | 0 | 0.0 | 3.0 | 0.00 | 0.00 | 0.00 | 42 | 1023.7 |
| 20260903063102 | 73 | 0 | 0.0 | 3.0 | 0.00 | 0.00 | 0.00 | 42 | 1023.7 |
| 20260903062549 | 74 | 0 | 0.0 | 3.0 | 0.00 | 0.00 | 0.00 | 42 | 1023.7 |
| 20260903062045 | 74 | 0 | 0.0 | 1.0 | 0.00 | 0.00 | 0.00 | 42 | 1023.6 |
| 20260903061611 | 74 | 0 | 0.0 | 3.0 | 0.00 | 0.00 | 0.00 | 42 | 1023.5 |
| 20260903061042 | 73 | 0 | 0.0 | 3.0 | 0.00 | 0.00 | 0.00 | 42 | 1023.4 |
| 20260903060544 | 73 | 0 | 0.0 | 3.0 | 0.00 | 0.00 | 0.00 | 42 | 1023.4 |
| 20260903060104 | 73 | 95 | 0.0 | 3.0 | 0.00 | 0.00 | 0.00 | 42 | 1023.4 |
| 20260903055545 | 73 | 57 | 0.0 | 8.0 | 0.00 | 0.00 | 0.00 | 42 | 1023.3 |
| 20260903055043 | 73 | 0 | 1.0 | 8.0 | 0.00 | 0.00 | 0.00 | 42 | 1023.2 |
| 20260903054603 | 73 | 0 | 1.0 | 8.0 | 0.00 | 0.00 | 0.00 | 42 | 1023.2 |
| 20260903054043 | 73 | 30 | 2.0 | 8.0 | 0.00 | 0.00 | 0.00 | 41 | 1023.2 |
| 20260903053543 | 73 | 93 | 1.0 | 7.0 | 0.00 | 0.00 | 0.00 | 41 | 1023.2 |
| 20260903053108 | 73 | 93 | 1.0 | 7.0 | 0.00 | 0.00 | 0.00 | 41 | 1023.0 |
| 20260903052544 | 73 | 76 | 1.0 | 6.0 | 0.00 | 0.00 | 0.00 | 40 | 1023.0 |
| 20260903052044 | 73 | 73 | 1.0 | 6.0 | 0.00 | 0.00 | 0.00 | 40 | 1022.9 |
| 20260903051557 | 74 | 83 | 1.0 | 6.0 | 0.00 | 0.00 | 0.00 | 41 | 1022.9 |
| 20260903051043 | 74 | 0 | 1.0 | 9.0 | 0.00 | 0.00 | 0.00 | 41 | 1022.8 |
| 20260903050543 | 74 | 104 | 2.0 | 9.0 | 0.00 | 0.00 | 0.00 | 41 | 1022.8 |
| 20260903050101 | 74 | 57 | 2.0 | 9.0 | 0.00 | 0.00 | 0.00 | 40 | 1022.8 |
| 20260903045543 | 74 | 83 | 1.0 | 9.0 | 0.00 | 0.00 | 0.00 | 40 | 1022.9 |
| 20260903045043 | 74 | 31 | 1.0 | 8.0 | 0.00 | 0.00 | 0.00 | 40 | 1022.9 |
| 20260903044555 | 75 | 59 | 1.0 | 8.0 | 0.00 | 0.00 | 0.00 | 40 | 1023.0 |
| 20260903044043 | 75 | 120 | 0.0 | 7.0 | 0.00 | 0.00 | 0.00 | 41 | 1023.1 |
| 20260903043543 | 75 | 0 | 1.0 | 7.0 | 0.00 | 0.00 | 0.00 | 41 | 1023.1 |
| 20260903043059 | 75 | 0 | 0.0 | 5.0 | 0.00 | 0.00 | 0.00 | 41 | 1023.1 |
| 20260903042542 | 75 | 74 | 1.0 | 5.0 | 0.00 | 0.00 | 0.00 | 40 | 1023.2 |
| 20260903042045 | 75 | 0 | 0.0 | 5.0 | 0.00 | 0.00 | 0.00 | 39 | 1023.1 |
| 20260903041558 | 75 | 18 | 1.0 | 5.0 | 0.00 | 0.00 | 0.00 | 39 | 1023.1 |
| 20260903041043 | 75 | 1 | 0.0 | 5.0 | 0.00 | 0.00 | 0.00 | 39 | 1023.0 |
| 20260903040543 | 75 | 56 | 1.0 | 8.0 | 0.00 | 0.00 | 0.00 | 38 | 1023.0 |
| 20260903040106 | 75 | 0 | 1.0 | 8.0 | 0.00 | 0.00 | 0.00 | 38 | 1023.0 |
| 20260903035543 | 75 | 57 | 1.0 | 6.0 | 0.00 | 0.00 | 0.00 | 37 | 1023.0 |
| 20260903035044 | 75 | 60 | 2.0 | 6.0 | 0.00 | 0.00 | 0.00 | 37 | 1023.0 |
| 20260903034559 | 76 | 41 | 1.0 | 5.0 | 0.00 | 0.00 | 0.00 | 37 | 1023.0 |
| 20260903034045 | 76 | 121 | 1.0 | 5.0 | 0.00 | 0.00 | 0.00 | 38 | 1022.9 |
| 20260903033542 | 76 | 0 | 1.0 | 7.0 | 0.00 | 0.00 | 0.00 | 37 | 1022.9 |
| 20260903033055 | 76 | 0 | 0.0 | 7.0 | 0.00 | 0.00 | 0.00 | 37 | 1022.8 |
| 20260903032544 | 76 | 0 | 2.0 | 7.0 | 0.00 | 0.00 | 0.00 | 37 | 1022.8 |
| 20260903032044 | 76 | 341 | 2.0 | 7.0 | 0.00 | 0.00 | 0.00 | 37 | 1022.8 |
| 20260903031600 | 76 | 0 | 1.0 | 5.0 | 0.00 | 0.00 | 0.00 | 37 | 1022.9 |
| 20260903031044 | 77 | 1 | 2.0 | 5.0 | 0.00 | 0.00 | 0.00 | 38 | 1022.8 |
| 20260903030543 | 77 | 0 | 1.0 | 9.0 | 0.00 | 0.00 | 0.00 | 38 | 1022.9 |
| 20260903030113 | 77 | 0 | 0.0 | 9.0 | 0.00 | 0.00 | 0.00 | 38 | 1022.9 |
| 20260903025546 | 77 | 0 | 2.0 | 9.0 | 0.00 | 0.00 | 0.00 | 39 | 1022.9 |
| 20260903025043 | 77 | 69 | 0.0 | 6.0 | 0.00 | 0.00 | 0.00 | 39 | 1022.9 |
| 20260903024555 | 78 | 91 | 0.0 | 6.0 | 0.00 | 0.00 | 0.00 | 39 | 1022.9 |
| 20260903024044 | 78 | 37 | 2.0 | 7.0 | 0.00 | 0.00 | 0.00 | 39 | 1022.8 |
| 20260903023544 | 78 | 32 | 2.0 | 9.0 | 0.00 | 0.00 | 0.00 | 39 | 1022.8 |
| 20260903023053 | 78 | 0 | 1.0 | 9.0 | 0.00 | 0.00 | 0.00 | 39 | 1022.8 |
| 20260903022543 | 78 | 49 | 1.0 | 7.0 | 0.00 | 0.00 | 0.00 | 39 | 1022.8 |
| 20260903022044 | 78 | 39 | 1.0 | 10.0 | 0.00 | 0.00 | 0.00 | 39 | 1022.8 |
| 20260903021558 | 78 | 226 | 1.0 | 10.0 | 0.00 | 0.00 | 0.00 | 39 | 1022.7 |
| 20260903021043 | 78 | 18 | 3.0 | 10.0 | 0.00 | 0.00 | 0.00 | 38 | 1022.7 |
| 20260903020543 | 78 | 14 | 0.0 | 6.0 | 0.00 | 0.00 | 0.00 | 38 | 1022.7 |
| 20260903020053 | 78 | 20 | 1.0 | 6.0 | 0.00 | 0.00 | 0.00 | 38 | 1022.7 |
| 20260903015547 | 78 | 0 | 1.0 | 6.0 | 0.00 | 0.00 | 0.00 | 38 | 1022.8 |
| 20260903015043 | 78 | 93 | 1.0 | 6.0 | 0.00 | 0.00 | 0.00 | 37 | 1022.7 |
| 20260903014611 | 78 | 86 | 1.0 | 8.0 | 0.00 | 0.00 | 0.00 | 37 | 1022.8 |
| 20260903014043 | 79 | 119 | 1.0 | 8.0 | 0.00 | 0.00 | 0.00 | 36 | 1022.8 |
| 20260903013545 | 79 | 262 | 2.0 | 8.0 | 0.00 | 0.00 | 0.00 | 36 | 1022.8 |
| 20260903013105 | 79 | 341 | 1.0 | 6.0 | 0.00 | 0.00 | 0.00 | 35 | 1022.8 |
| 20260903012543 | 79 | 93 | 0.0 | 9.0 | 0.00 | 0.00 | 0.00 | 35 | 1022.7 |
| 20260903012046 | 79 | 42 | 1.0 | 9.0 | 0.00 | 0.00 | 0.00 | 34 | 1022.8 |
| 20260903011607 | 79 | 329 | 1.0 | 6.0 | 0.00 | 0.00 | 0.00 | 34 | 1022.8 |
| 20260903011043 | 79 | 0 | 0.0 | 6.0 | 0.00 | 0.00 | 0.00 | 33 | 1022.7 |
| 20260903010543 | 79 | 0 | 1.0 | 10.0 | 0.00 | 0.00 | 0.00 | 32 | 1022.7 |
| 20260903010118 | 79 | 334 | 3.0 | 10.0 | 0.00 | 0.00 | 0.00 | 31 | 1022.8 |
| 20260903005543 | 79 | 221 | 0.0 | 7.0 | 0.00 | 0.00 | 0.00 | 30 | 1022.7 |
| 20260903005043 | 80 | 0 | 0.0 | 8.0 | 0.00 | 0.00 | 0.00 | 29 | 1022.7 |
| 20260903004556 | 80 | 0 | 2.0 | 8.0 | 0.00 | 0.00 | 0.00 | 28 | 1022.7 |
| 20260903004045 | 80 | 61 | 2.0 | 8.0 | 0.00 | 0.00 | 0.00 | 27 | 1022.6 |
| 20260903003544 | 80 | 41 | 3.0 | 9.0 | 0.00 | 0.00 | 0.00 | 26 | 1022.7 |
| 20260903003058 | 80 | 26 | 1.0 | 9.0 | 0.00 | 0.00 | 0.00 | 26 | 1022.7 |
| 20260903002543 | 80 | 91 | 2.0 | 9.0 | 0.00 | 0.00 | 0.00 | 26 | 1022.8 |
| 20260903002045 | 81 | 72 | 2.0 | 9.0 | 0.00 | 0.00 | 0.00 | 25 | 1022.7 |
| 20260903001600 | 81 | 300 | 2.0 | 9.0 | 0.00 | 0.00 | 0.00 | 25 | 1022.7 |
| 20260903001045 | 81 | 57 | 1.0 | 8.0 | 0.00 | 0.00 | 0.00 | 24 | 1022.8 |
| 20260903000543 | 81 | 360 | 2.0 | 7.0 | 0.00 | 0.00 | 0.00 | 24 | 1022.8 |
| 20260903000100 | 81 | 42 | 2.0 | 6.0 | 0.00 | 0.00 | 0.00 | 23 | 1022.7 |
| 20260902235544 | 82 | 43 | 0.0 | 6.0 | 0.00 | 0.00 | 0.00 | 23 | 1022.7 |
| 20260902235043 | 82 | 86 | 1.0 | 8.0 | 0.00 | 0.00 | 0.00 | 22 | 1022.6 |
| 20260902234556 | 82 | 92 | 1.0 | 8.0 | 0.00 | 0.00 | 0.00 | 22 | 1022.6 |
| 20260902234043 | 82 | 157 | 2.0 | 8.0 | 0.00 | 0.00 | 0.00 | 22 | 1022.5 |
| 20260902233543 | 83 | 124 | 3.0 | 7.0 | 0.00 | 0.00 | 0.00 | 21 | 1022.5 |
| 20260902233055 | 83 | 351 | 1.0 | 9.0 | 0.00 | 0.00 | 0.00 | 22 | 1022.5 |
| 20260902232544 | 83 | 164 | 1.0 | 9.0 | 0.00 | 0.00 | 0.00 | 22 | 1022.5 |
| 20260902232044 | 83 | 132 | 2.0 | 9.0 | 0.00 | 0.00 | 0.00 | 22 | 1022.5 |
| 20260902231611 | 83 | 136 | 0.0 | 4.0 | 0.00 | 0.00 | 0.00 | 24 | 1022.5 |
| 20260902231043 | 82 | 125 | 0.0 | 4.0 | 0.00 | 0.00 | 0.00 | 25 | 1022.6 |
| 20260902230543 | 82 | 0 | 1.0 | 3.0 | 0.00 | 0.00 | 0.00 | 25 | 1022.5 |
| 20260902230059 | 82 | 42 | 0.0 | 3.0 | 0.00 | 0.00 | 0.00 | 25 | 1022.5 |
| 20260902225543 | 82 | 0 | 0.0 | 2.0 | 0.00 | 0.00 | 0.00 | 25 | 1022.4 |
| 20260902225045 | 82 | 341 | 0.0 | 2.0 | 0.00 | 0.00 | 0.00 | 25 | 1022.5 |
| 20260902224607 | 82 | 0 | 0.0 | 2.0 | 0.00 | 0.00 | 0.00 | 25 | 1022.4 |
| 20260902224047 | 83 | 0 | 0.0 | 1.0 | 0.00 | 0.00 | 0.00 | 25 | 1022.4 |
| 20260902223544 | 83 | 0 | 0.0 | 1.0 | 0.00 | 0.00 | 0.00 | 24 | 1022.4 |
| 20260902223058 | 82 | 0 | 0.0 | 0.0 | 0.00 | 0.00 | 0.00 | 26 | 1022.3 |
| 20260902222546 | 82 | 0 | 0.0 | 0.0 | 0.00 | 0.00 | 0.00 | 27 | 1022.3 |
| 20260902222047 | 82 | 0 | 0.0 | 0.0 | 0.00 | 0.00 | 0.00 | 27 | 1022.2 |
| 20260902221618 | 82 | 0 | 0.0 | 0.0 | 0.00 | 0.00 | 0.00 | 28 | 1022.2 |
| 20260902221044 | 82 | 0 | 0.0 | 0.0 | 0.00 | 0.00 | 0.00 | 27 | 1022.2 |
| 20260902220543 | 83 | 0 | 0.0 | 0.0 | 0.00 | 0.00 | 0.00 | 28 | 1022.2 |
| 20260902220104 | 83 | 0 | 0.0 | 0.0 | 0.00 | 0.00 | 0.00 | 26 | 1022.2 |
| 20260902215543 | 83 | 0 | 0.0 | 0.0 | 0.00 | 0.00 | 0.00 | 26 | 1022.2 |
| 20260902215042 | 83 | 0 | 0.0 | 0.0 | 0.00 | 0.00 | 0.00 | 27 | 1022.2 |
| 20260902214558 | 83 | 0 | 0.0 | 0.0 | 0.00 | 0.00 | 0.00 | 25 | 1022.2 |
| 20260902214046 | 83 | 0 | 0.0 | 0.0 | 0.00 | 0.00 | 0.00 | 26 | 1022.2 |
| 20260902213544 | 83 | 0 | 0.0 | 0.0 | 0.00 | 0.00 | 0.00 | 26 | 1022.2 |
| 20260902213055 | 84 | 0 | 0.0 | 1.0 | 0.00 | 0.00 | 0.00 | 26 | 1022.1 |
| 20260902212544 | 84 | 0 | 0.0 | 1.0 | 0.00 | 0.00 | 0.00 | 26 | 1022.1 |
| 20260902212044 | 84 | 341 | 0.0 | 1.0 | 0.00 | 0.00 | 0.00 | 26 | 1022.2 |
| 20260902211602 | 84 | 0 | 0.0 | 0.0 | 0.00 | 0.00 | 0.00 | 27 | 1022.2 |
| 20260902211044 | 84 | 0 | 0.0 | 0.0 | 0.00 | 0.00 | 0.00 | 27 | 1022.2 |
| 20260902210543 | 84 | 0 | 0.0 | 0.0 | 0.00 | 0.00 | 0.00 | 26 | 1022.1 |
| 20260902210058 | 84 | 0 | 0.0 | 0.0 | 0.00 | 0.00 | 0.00 | 27 | 1022.1 |
| 20260902205542 | 83 | 0 | 0.0 | 1.0 | 0.00 | 0.00 | 0.00 | 28 | 1022.1 |
| 20260902205043 | 83 | 0 | 0.0 | 2.0 | 0.00 | 0.00 | 0.00 | 28 | 1022.1 |
| 20260902204557 | 83 | 0 | 0.0 | 5.0 | 0.00 | 0.00 | 0.00 | 28 | 1022.1 |
| 20260902204043 | 84 | 341 | 1.0 | 5.0 | 0.00 | 0.00 | 0.00 | 27 | 1022.0 |
| 20260902203544 | 85 | 341 | 1.0 | 4.0 | 0.00 | 0.00 | 0.00 | 24 | 1022.0 |
| 20260902203058 | 86 | 209 | 0.0 | 0.0 | 0.00 | 0.00 | 0.00 | 26 | 1021.9 |
| 20260902202544 | 86 | 0 | 0.0 | 0.0 | 0.00 | 0.00 | 0.00 | 24 | 1021.8 |
| 20260902202043 | 86 | 0 | 0.0 | 1.0 | 0.00 | 0.00 | 0.00 | 24 | 1021.8 |
| 20260902201604 | 87 | 0 | 0.0 | 1.0 | 0.00 | 0.00 | 0.00 | 25 | 1021.7 |
| 20260902201046 | 87 | 0 | 0.0 | 1.0 | 0.00 | 0.00 | 0.00 | 22 | 1021.6 |
| 20260902200544 | 87 | 0 | 0.0 | 3.0 | 0.00 | 0.00 | 0.00 | 22 | 1021.6 |
| 20260902200059 | 88 | 0 | 0.0 | 3.0 | 0.00 | 0.00 | 0.00 | 22 | 1021.6 |
| 20260902195546 | 88 | 201 | 0.0 | 2.0 | 0.00 | 0.00 | 0.00 | 22 | 1021.6 |
| 20260902195044 | 88 | 257 | 0.0 | 1.0 | 0.00 | 0.00 | 0.00 | 22 | 1021.4 |
| 20260902194555 | 88 | 0 | 0.0 | 1.0 | 0.00 | 0.00 | 0.00 | 23 | 1021.3 |
| 20260902194044 | 88 | 0 | 0.0 | 1.0 | 0.00 | 0.00 | 0.00 | 23 | 1021.4 |
| 20260902193543 | 88 | 0 | 0.0 | 2.0 | 0.00 | 0.00 | 0.00 | 23 | 1021.3 |
| 20260902193106 | 88 | 0 | 0.0 | 2.0 | 0.00 | 0.00 | 0.00 | 23 | 1021.2 |
| 20260902192549 | 88 | 0 | 0.0 | 2.0 | 0.00 | 0.00 | 0.00 | 23 | 1021.1 |
| 20260902192044 | 88 | 0 | 0.0 | 2.0 | 0.00 | 0.00 | 0.00 | 23 | 1021.1 |
| 20260902191619 | 89 | 0 | 0.0 | 2.0 | 0.00 | 0.00 | 0.00 | 23 | 1021.1 |
| 20260902191044 | 89 | 234 | 0.0 | 1.0 | 0.00 | 0.00 | 0.00 | 23 | 1021.0 |
| 20260902190544 | 89 | 0 | 0.0 | 2.0 | 0.00 | 0.00 | 0.00 | 23 | 1020.9 |
| 20260902190100 | 89 | 236 | 0.0 | 4.0 | 0.00 | 0.00 | 0.00 | 23 | 1020.9 |
| 20260902185543 | 89 | 236 | 0.0 | 4.0 | 0.00 | 0.00 | 0.00 | 22 | 1020.8 |
| 20260902185046 | 90 | 259 | 1.0 | 4.0 | 0.00 | 0.00 | 0.00 | 22 | 1020.8 |
| 20260902184549 | 90 | 218 | 1.0 | 5.0 | 0.00 | 0.00 | 0.00 | 22 | 1020.7 |
| 20260902184045 | 90 | 203 | 1.0 | 6.0 | 0.00 | 0.00 | 0.00 | 22 | 1020.7 |
| 20260902183543 | 91 | 221 | 1.0 | 8.0 | 0.00 | 0.00 | 0.00 | 21 | 1020.7 |
| 20260902183123 | 91 | 234 | 2.0 | 8.0 | 0.00 | 0.00 | 0.00 | 21 | 1020.6 |
| 20260902182549 | 91 | 163 | 2.0 | 8.0 | 0.00 | 0.00 | 0.00 | 21 | 1020.7 |
| 20260902182045 | 91 | 199 | 2.0 | 5.0 | 0.00 | 0.00 | 0.00 | 21 | 1020.6 |
| 20260902181610 | 91 | 230 | 0.0 | 5.0 | 0.00 | 0.00 | 0.00 | 21 | 1020.5 |
| 20260902181045 | 92 | 211 | 1.0 | 7.0 | 0.00 | 0.00 | 0.00 | 21 | 1020.5 |
| 20260902180543 | 92 | 236 | 1.0 | 7.0 | 0.00 | 0.00 | 0.00 | 21 | 1020.6 |
| 20260902180054 | 92 | 251 | 0.0 | 6.0 | 0.00 | 0.00 | 0.00 | 21 | 1020.6 |
| 20260902175545 | 92 | 234 | 2.0 | 6.0 | 0.00 | 0.00 | 0.00 | 21 | 1020.6 |
| 20260902175044 | 92 | 223 | 2.0 | 4.0 | 0.00 | 0.00 | 0.00 | 21 | 1020.6 |
| 20260902174600 | 93 | 0 | 0.0 | 4.0 | 0.00 | 0.00 | 0.00 | 20 | 1020.6 |
| 20260902174045 | 92 | 279 | 0.0 | 4.0 | 0.00 | 0.00 | 0.00 | 21 | 1020.6 |
| 20260902173544 | 93 | 0 | 1.0 | 4.0 | 0.00 | 0.00 | 0.00 | 20 | 1020.6 |
| 20260902173112 | 93 | 242 | 1.0 | 8.0 | 0.00 | 0.00 | 0.00 | 19 | 1020.6 |
| 20260902172543 | 93 | 247 | 1.0 | 8.0 | 0.00 | 0.00 | 0.00 | 20 | 1020.6 |
| 20260902172043 | 93 | 357 | 0.0 | 8.0 | 0.00 | 0.00 | 0.00 | 20 | 1020.5 |
| 20260902171608 | 93 | 309 | 1.0 | 8.0 | 0.00 | 0.00 | 0.00 | 20 | 1020.4 |
| 20260902171045 | 93 | 318 | 1.0 | 4.0 | 0.00 | 0.00 | 0.00 | 21 | 1020.5 |
| 20260902170545 | 93 | 0 | 1.0 | 4.0 | 0.00 | 0.00 | 0.00 | 22 | 1020.4 |
| 20260902170058 | 93 | 193 | 1.0 | 7.0 | 0.00 | 0.00 | 0.00 | 22 | 1020.4 |
| 20260902165546 | 93 | 242 | 2.0 | 7.0 | 0.00 | 0.00 | 0.00 | 21 | 1020.4 |
| 20260902165046 | 94 | 0 | 1.0 | 4.0 | 0.00 | 0.00 | 0.00 | 21 | 1020.4 |
| 20260902164602 | 94 | 341 | 1.0 | 4.0 | 0.00 | 0.00 | 0.00 | 21 | 1020.5 |
| 20260902164044 | 94 | 329 | 1.0 | 5.0 | 0.00 | 0.00 | 0.00 | 21 | 1020.5 |
| 20260902163545 | 94 | 0 | 0.0 | 5.0 | 0.00 | 0.00 | 0.00 | 21 | 1020.6 |
| 20260902163101 | 94 | 328 | 1.0 | 10.0 | 0.00 | 0.00 | 0.00 | 21 | 1020.6 |
| 20260902162545 | 94 | 0 | 1.0 | 10.0 | 0.00 | 0.00 | 0.00 | 21 | 1020.5 |
| 20260902162049 | 92 | 201 | 1.0 | 7.0 | 0.00 | 0.00 | 0.00 | 22 | 1020.6 |
| 20260902161601 | 92 | 201 | 2.0 | 7.0 | 0.00 | 0.00 | 0.00 | 22 | 1020.7 |
| 20260902161044 | 94 | 284 | 0.0 | 6.0 | 0.00 | 0.00 | 0.00 | 21 | 1020.7 |
| 20260902160545 | 94 | 280 | 2.0 | 6.0 | 0.00 | 0.00 | 0.00 | 21 | 1020.8 |
| 20260902160119 | 94 | 0 | 1.0 | 5.0 | 0.00 | 0.00 | 0.00 | 21 | 1020.7 |
| 20260902155544 | 93 | 0 | 1.0 | 5.0 | 0.00 | 0.00 | 0.00 | 21 | 1020.8 |
| 20260902155045 | 94 | 234 | 0.0 | 6.0 | 0.00 | 0.00 | 0.00 | 20 | 1020.8 |
| 20260902154607 | 94 | 341 | 1.0 | 9.0 | 0.00 | 0.00 | 0.00 | 20 | 1020.8 |
| 20260902154045 | 94 | 148 | 2.0 | 9.0 | 0.00 | 0.00 | 0.00 | 21 | 1020.8 |
| 20260902153542 | 92 | 233 | 2.0 | 9.0 | 0.00 | 0.00 | 0.00 | 22 | 1020.8 |
| 20260902153100 | 92 | 178 | 0.0 | 12.0 | 0.00 | 0.00 | 0.00 | 22 | 1020.8 |
| 20260902152543 | 92 | 227 | 5.0 | 12.0 | 0.00 | 0.00 | 0.00 | 22 | 1020.8 |
| 20260902152048 | 94 | 213 | 1.0 | 12.0 | 0.00 | 0.00 | 0.00 | 21 | 1020.8 |
| 20260902151600 | 93 | 308 | 4.0 | 12.0 | 0.00 | 0.00 | 0.00 | 22 | 1020.9 |
| 20260902151046 | 93 | 90 | 2.0 | 9.0 | 0.00 | 0.00 | 0.00 | 21 | 1020.9 |
| 20260902150542 | 93 | 215 | 3.0 | 9.0 | 0.00 | 0.00 | 0.00 | 22 | 1020.9 |
| 20260902150104 | 93 | 186 | 0.0 | 9.0 | 0.00 | 0.00 | 0.00 | 21 | 1020.9 |
| 20260902145543 | 92 | 351 | 1.0 | 9.0 | 0.00 | 0.00 | 0.00 | 22 | 1020.9 |
| 20260902145046 | 92 | 125 | 3.0 | 9.0 | 0.00 | 0.00 | 0.00 | 22 | 1021.1 |
| 20260902144603 | 92 | 126 | 3.0 | 10.0 | 0.00 | 0.00 | 0.00 | 22 | 1021.0 |
| 20260902144045 | 92 | 214 | 4.0 | 10.0 | 0.00 | 0.00 | 0.00 | 21 | 1021.1 |
| 20260902143542 | 93 | 265 | 2.0 | 10.0 | 0.00 | 0.00 | 0.00 | 21 | 1021.1 |
| 20260902143055 | 93 | 251 | 1.0 | 5.0 | 0.00 | 0.00 | 0.00 | 21 | 1021.3 |
| 20260902142546 | 93 | 297 | 0.0 | 10.0 | 0.00 | 0.00 | 0.00 | 21 | 1021.2 |
| 20260902142045 | 92 | 232 | 2.0 | 10.0 | 0.00 | 0.00 | 0.00 | 22 | 1021.1 |
| 20260902141600 | 93 | 217 | 4.0 | 10.0 | 0.00 | 0.00 | 0.00 | 22 | 1021.3 |
| 20260902141045 | 93 | 196 | 1.0 | 6.0 | 0.00 | 0.00 | 0.00 | 21 | 1021.3 |
| 20260902140542 | 93 | 235 | 1.0 | 10.0 | 0.00 | 0.00 | 0.00 | 22 | 1021.4 |
| 20260902140105 | 92 | 230 | 3.0 | 10.0 | 0.00 | 0.00 | 0.00 | 22 | 1021.5 |
| 20260902135543 | 92 | 273 | 2.0 | 9.0 | 0.00 | 0.00 | 0.00 | 22 | 1021.5 |
| 20260902135046 | 92 | 190 | 3.0 | 12.0 | 0.00 | 0.00 | 0.00 | 22 | 1021.6 |
| 20260902134603 | 92 | 191 | 2.0 | 13.0 | 0.00 | 0.00 | 0.00 | 23 | 1021.5 |
| 20260902134102 | 91 | 222 | 6.0 | 13.0 | 0.00 | 0.00 | 0.00 | 24 | 1021.7 |
| 20260902133547 | 91 | 235 | 0.0 | 7.0 | 0.00 | 0.00 | 0.00 | 23 | 1021.7 |
| 20260902133057 | 90 | 220 | 4.0 | 10.0 | 0.00 | 0.00 | 0.00 | 24 | 1021.7 |
| 20260902132545 | 91 | 164 | 3.0 | 10.0 | 0.00 | 0.00 | 0.00 | 23 | 1021.7 |
| 20260902132051 | 90 | 209 | 5.0 | 10.0 | 0.00 | 0.00 | 0.00 | 24 | 1021.7 |
| 20260902131556 | 90 | 153 | 2.0 | 10.0 | 0.00 | 0.00 | 0.00 | 24 | 1021.7 |
| 20260902131045 | 90 | 235 | 3.0 | 10.0 | 0.00 | 0.00 | 0.00 | 25 | 1021.8 |
| 20260902130545 | 90 | 187 | 5.0 | 10.0 | 0.00 | 0.00 | 0.00 | 25 | 1021.8 |
| 20260902130100 | 91 | 208 | 2.0 | 8.0 | 0.00 | 0.00 | 0.00 | 24 | 1021.7 |
| 20260902125547 | 90 | 0 | 2.0 | 8.0 | 0.00 | 0.00 | 0.00 | 24 | 1021.8 |
| 20260902125044 | 92 | 278 | 1.0 | 8.0 | 0.00 | 0.00 | 0.00 | 23 | 1021.8 |
| 20260902124554 | 92 | 283 | 0.0 | 9.0 | 0.00 | 0.00 | 0.00 | 23 | 1021.9 |
| 20260902124045 | 92 | 184 | 1.0 | 9.0 | 0.00 | 0.00 | 0.00 | 22 | 1022.0 |
| 20260902123545 | 92 | 257 | 3.0 | 9.0 | 0.00 | 0.00 | 0.00 | 22 | 1022.0 |
| 20260902123103 | 92 | 0 | 0.0 | 3.0 | 0.00 | 0.00 | 0.00 | 22 | 1022.0 |
| 20260902122545 | 91 | 253 | 0.0 | 5.0 | 0.00 | 0.00 | 0.00 | 24 | 1022.1 |
| 20260902122047 | 89 | 0 | 1.0 | 5.0 | 0.00 | 0.00 | 0.00 | 24 | 1022.2 |
| 20260902121552 | 89 | 154 | 2.0 | 5.0 | 0.00 | 0.00 | 0.00 | 23 | 1022.2 |
| 20260902121045 | 90 | 230 | 0.0 | 6.0 | 0.00 | 0.00 | 0.00 | 23 | 1022.3 |
| 20260902120545 | 90 | 224 | 1.0 | 6.0 | 0.00 | 0.00 | 0.00 | 24 | 1022.3 |
| 20260902120056 | 90 | 298 | 0.0 | 4.0 | 0.00 | 0.00 | 0.00 | 25 | 1022.4 |
| 20260902115545 | 91 | 195 | 0.0 | 4.0 | 0.00 | 0.00 | 0.00 | 25 | 1022.4 |
| 20260902115045 | 89 | 8 | 0.0 | 4.0 | 0.00 | 0.00 | 0.00 | 28 | 1022.5 |
| 20260902114556 | 87 | 228 | 1.0 | 5.0 | 0.00 | 0.00 | 0.00 | 32 | 1022.5 |
| 20260902114046 | 87 | 49 | 1.0 | 5.0 | 0.00 | 0.00 | 0.00 | 31 | 1022.6 |
| 20260902113543 | 88 | 7 | 2.0 | 4.0 | 0.00 | 0.00 | 0.00 | 31 | 1022.6 |
| 20260902113105 | 89 | 335 | 0.0 | 3.0 | 0.00 | 0.00 | 0.00 | 30 | 1022.7 |
| 20260902112545 | 87 | 0 | 0.0 | 3.0 | 0.00 | 0.00 | 0.00 | 34 | 1022.8 |
| 20260902112043 | 86 | 19 | 0.0 | 3.0 | 0.00 | 0.00 | 0.00 | 35 | 1022.8 |
| 20260902111600 | 86 | 0 | 0.0 | 3.0 | 0.00 | 0.00 | 0.00 | 35 | 1022.9 |
| 20260902111043 | 85 | 0 | 0.0 | 5.0 | 0.00 | 0.00 | 0.00 | 36 | 1022.9 |
| 20260902110546 | 84 | 0 | 2.0 | 5.0 | 0.00 | 0.00 | 0.00 | 38 | 1022.9 |
| 20260902110057 | 84 | 0 | 2.0 | 4.0 | 0.00 | 0.00 | 0.00 | 38 | 1023.0 |
| 20260902105545 | 85 | 0 | 1.0 | 4.0 | 0.00 | 0.00 | 0.00 | 36 | 1023.1 |
| 20260902105042 | 85 | 0 | 1.0 | 4.0 | 0.00 | 0.00 | 0.00 | 38 | 1023.0 |
| 20260902104615 | 86 | 172 | 0.0 | 5.0 | 0.00 | 0.00 | 0.00 | 36 | 1023.0 |
| 20260902104042 | 83 | 351 | 0.0 | 5.0 | 0.00 | 0.00 | 0.00 | 40 | 1023.0 |
| 20260902103545 | 83 | 182 | 1.0 | 4.0 | 0.00 | 0.00 | 0.00 | 40 | 1023.1 |
| 20260902103105 | 83 | 100 | 1.0 | 3.0 | 0.00 | 0.00 | 0.00 | 38 | 1023.1 |
| 20260902102547 | 83 | 31 | 0.0 | 4.0 | 0.00 | 0.00 | 0.00 | 40 | 1023.1 |
| 20260902102044 | 81 | 0 | 1.0 | 5.0 | 0.00 | 0.00 | 0.00 | 41 | 1023.1 |
| 20260902101605 | 81 | 145 | 2.0 | 5.0 | 0.00 | 0.00 | 0.00 | 42 | 1023.2 |
| 20260902101046 | 81 | 151 | 2.0 | 4.0 | 0.00 | 0.00 | 0.00 | 41 | 1023.0 |
| 20260902100547 | 83 | 30 | 1.0 | 5.0 | 0.00 | 0.00 | 0.00 | 40 | 1023.0 |
| 20260902100056 | 80 | 222 | 2.0 | 5.0 | 0.00 | 0.00 | 0.00 | 43 | 1023.0 |
| 20260902095546 | 81 | 153 | 1.0 | 4.0 | 0.00 | 0.00 | 0.00 | 40 | 1023.1 |
| 20260902095046 | 81 | 247 | 0.0 | 4.0 | 0.00 | 0.00 | 0.00 | 43 | 1023.0 |
| 20260902094600 | 79 | 201 | 2.0 | 4.0 | 0.00 | 0.00 | 0.00 | 45 | 1023.0 |
| 20260902094044 | 80 | 163 | 0.0 | 3.0 | 0.00 | 0.00 | 0.00 | 44 | 1023.0 |
| 20260902093543 | 80 | 78 | 0.0 | 3.0 | 0.00 | 0.00 | 0.00 | 44 | 1022.9 |
| 20260902093103 | 79 | 12 | 0.0 | 3.0 | 0.00 | 0.00 | 0.00 | 46 | 1022.9 |
| 20260902092542 | 79 | 180 | 1.0 | 2.0 | 0.00 | 0.00 | 0.00 | 45 | 1022.9 |
| 20260902092046 | 79 | 173 | 0.0 | 5.0 | 0.00 | 0.00 | 0.00 | 44 | 1022.9 |
| 20260902091603 | 77 | 0 | 2.0 | 5.0 | 0.00 | 0.00 | 0.00 | 47 | 1022.9 |
| 20260902091045 | 77 | 151 | 2.0 | 5.0 | 0.00 | 0.00 | 0.00 | 48 | 1022.8 |
| 20260902090545 | 78 | 136 | 1.0 | 4.0 | 0.00 | 0.00 | 0.00 | 48 | 1022.9 |
| 20260902090119 | 77 | 0 | 0.0 | 5.0 | 0.00 | 0.00 | 0.00 | 48 | 1022.8 |
| 20260902085545 | 77 | 138 | 1.0 | 5.0 | 0.00 | 0.00 | 0.00 | 48 | 1022.8 |
| 20260902085047 | 77 | 179 | 1.0 | 5.0 | 0.00 | 0.00 | 0.00 | 48 | 1022.7 |
| 20260902084603 | 77 | 126 | 0.0 | 4.0 | 0.00 | 0.00 | 0.00 | 47 | 1022.8 |
| 20260902084042 | 77 | 139 | 0.0 | 5.0 | 0.00 | 0.00 | 0.00 | 47 | 1022.7 |
| 20260902083543 | 76 | 0 | 1.0 | 5.0 | 0.00 | 0.00 | 0.00 | 47 | 1022.7 |
| 20260902083053 | 76 | 178 | 1.0 | 4.0 | 0.00 | 0.00 | 0.00 | 46 | 1022.6 |
| 20260902082542 | 77 | 0 | 0.0 | 3.0 | 0.00 | 0.00 | 0.00 | 42 | 1022.6 |
| 20260902082046 | 76 | 0 | 0.0 | 3.0 | 0.00 | 0.00 | 0.00 | 43 | 1022.6 |
| 20260902081616 | 76 | 84 | 0.0 | 3.0 | 0.00 | 0.00 | 0.00 | 43 | 1022.5 |
| 20260902081046 | 76 | 168 | 1.0 | 3.0 | 0.00 | 0.00 | 0.00 | 42 | 1022.5 |
| 20260902080546 | 76 | 0 | 1.0 | 3.0 | 0.00 | 0.00 | 0.00 | 41 | 1022.4 |
| 20260902080059 | 76 | 66 | 0.0 | 2.0 | 0.00 | 0.00 | 0.00 | 40 | 1022.3 |